Wind_Speed
6 5 5 6 5 5 5 7 7 6 5 4 3 4 5 6 6 6 5 6 6 5 4 5 6 6 6 7 8 8 8 8 9 9 9 8 6 5 5 4 4 4
7 6 6 6 5 5 6 6 6 5 4 3 3 4 6 7 7 6 5 6 6 5 5 5 6 6 6 7 8 8 9 10 10 9 8 7 5 4 3 3 2 3
8 7 7 7 6 6 6 6 5 5 3 2 3 5 8 8 7 5 5 6 5 4 4 5 5 5 6 7 9 10 10 10 10 9 7 6 5 4 3 2 2 2
9 8 7 6 6 6 6 6 5 5 4 3 4 5 9 9 6 4 5 5 4 3 4 5 4 5 6 8 9 10 10 9 9 8 7 5 4 4 3 2 2 2
10 9 8 7 6 6 7 6 6 5 5 4 4 6 8 8 5 4 4 3 3 3 3 4 4 5 6 9 10 10 9 8 8 7 6 5 5 4 4 3 3 3
12 10 9 8 8 8 7 6 6 6 6 5 5 6 7 6 4 4 3 2 2 3 3 3 4 5 7 9 10 10 8 7 6 6 6 5 5 5 5 4 4 3
13 12 10 9 9 9 8 6 6 7 7 6 5 5 6 5 5 4 3 2 2 3 3 3 4 6 7 9 10 9 7 6 6 6 6 5 5 6 5 5 4 3
14 14 12 10 10 10 9 7 7 8 8 7 6 5 5 5 5 4 4 3 3 3 3 3 4 6 7 8 8 8 7 6 6 6 6 6 5 6 5 5 5 3
16 15 13 11 11 11 10 9 8 9 9 7 6 5 5 5 5 4 3 3 3 3 3 3 5 6 7 7 7 6 6 7 7 7 7 6 5 5 4 5 5 4
17 17 15 13 12 12 11 9 10 10 9 8 7 5 5 5 5 4 3 3 2 3 3 4 5 5 6 6 6 6 7 9 10 10 9 7 5 3 3 3 4 4
19 18 16 14 14 13 11 10 11 11 10 8 7 6 5 5 5 5 3 2 3 3 4 4 4 5 6 6 6 7 8 10 12 11 9 6 3 2 1 2 4 4
20 19 18 16 15 14 12 11 12 12 11 9 7 6 5 5 6 6 5 4 4 5 5 4 3 4 5 6 6 7 10 11 11 8 5 2 2 1 0 1 3 3
21 20 19 17 16 15 13 13 14 13 12 9 8 7 6 6 6 7 6 5 6 7 6 4 3 4 5 5 6 8 10 9 7 5 3 2 2 2 1 1 2 2
22 22 21 19 17 16 15 15 15 14 12 10 9 8 7 6 6 7 6 5 6 7 7 5 3 4 4 4 5 7 8 6 4 4 3 4 4 3 3 2 2 2
23 23 22 20 18 18 18 17 17 15 14 12 10 9 8 7 6 7 6 6 7 8 8 6 4 4 3 3 4 6 6 4 2 3 4 5 5 5 5 4 4 4
24 24 24 22 20 20 20 19 18 17 15 14 12 11 10 8 7 7 7 6 7 8 9 7 5 5 4 2 2 4 4 2 1 4 5 5 6 6 7 7 7 7
25 26 25 23 22 22 21 20 20 19 18 16 14 13 12 10 9 9 9 8 8 9 9 7 6 6 5 4 2 1 2 1 2 4 5 6 6 7 8 8 8 8
26 27 26 25 24 24 23 22 22 21 20 18 17 16 14 13 12 11 11 10 9 9 9 7 6 7 7 6 5 3 1 2 4 4 4 5 5 6 8 8 8 8
27 27 27 27 26 25 24 24 24 24 22 21 19 18 17 15 13 13 13 12 12 11 10 8 7 7 8 8 7 6 4 4 5 5 3 3 4 6 7 8 8 8
27 28 28 29 28 27 26 27 27 26 24 22 21 20 20 18 16 15 15 14 14 13 12 10 9 8 8 9 10 9 7 6 6 6 4 2 3 5 6 7 7 7
27 28 29 30 30 29 28 29 29 28 26 24 23 22 22 20 18 17 17 16 16 15 14 12 11 9 9 10 12 11 10 9 8 7 5 4 4 4 5 6 6 6
28 29 30 31 31 30 30 30 31 30 28 27 25 24 23 21 20 19 18 17 18 17 16 15 13 11 10 12 14 14 14 13 11 9 7 5 5 5 5 6 6 5
29 30 30 31 31 31 32 33 33 33 31 29 27 26 25 24 22 20 18 18 19 19 18 17 15 12 11 12 15 17 17 16 14 12 9 7 6 6 5 5 5 4
30 31 31 32 32 34 35 35 34 33 32 30 29 28 27 26 23 20 19 19 20 20 19 18 17 14 12 13 17 19 19 19 17 15 12 10 9 8 7 6 6 6
29 30 31 32 33 36 35 32 30 30 28 27 28 27 26 25 23 21 20 20 21 20 20 19 18 16 14 14 17 20 21 21 20 18 16 14 12 11 10 9 8 9
28 29 31 32 34 36 32 29 31 31 28 27 29 29 27 26 24 23 22 21 21 21 21 21 19 17 15 16 18 21 22 23 23 22 20 17 15 14 13 12 11 11
Wind_Direction
233 244 253 260 262 256 245 234 230 236 250 270 293 301 306 319 325 323 336 351 346 339 338 334 340 347 347 352 356 355 352 350 347 346 347 348 352 352 345 348 357 4
236 245 248 253 249 231 225 225 224 230 239 261 297 316 323 326 328 326 333 345 343 334 334 341 354 1 358 357 355 349 344 340 336 335 335 335 341 350 352 353 350 345
233 240 243 249 244 225 218 217 215 221 230 264 301 322 331 328 326 325 330 340 342 333 334 348 2 8 3 358 351 343 338 337 337 339 336 332 338 346 352 359 348 331
228 232 238 245 240 224 220 217 216 224 232 258 292 317 328 325 316 309 320 332 335 330 334 339 345 352 354 354 349 339 334 335 342 344 338 336 346 346 345 347 332 326
226 230 235 240 234 222 219 219 224 235 238 250 280 312 323 320 302 280 295 315 320 321 330 330 330 342 351 354 349 337 330 333 343 345 335 338 355 355 350 347 332 332
223 227 233 238 235 225 220 223 231 237 239 249 276 302 312 310 286 257 266 297 305 311 325 329 330 343 351 351 347 337 329 330 340 345 338 339 357 0 357 357 346 345
222 223 227 232 231 224 223 229 234 232 231 244 265 286 297 292 269 244 248 280 293 297 306 311 325 342 348 346 344 339 333 331 337 344 340 341 352 355 2 7 3 4
225 224 224 227 226 222 224 231 233 227 226 235 250 270 281 275 262 244 245 266 283 285 279 296 326 339 341 340 341 340 338 337 338 340 340 341 344 348 2 16 14 17
225 225 223 227 227 223 224 230 230 224 224 233 241 258 273 270 261 250 253 272 281 271 263 297 326 332 333 334 336 339 340 338 335 333 330 330 334 342 2 17 16 17
222 223 223 229 230 224 223 227 227 222 223 230 237 253 267 264 255 251 267 285 268 248 259 296 321 329 333 330 328 332 333 330 327 324 317 308 310 325 347 9 13 17
220 221 224 229 230 225 223 224 221 218 220 227 236 250 259 257 253 256 270 272 244 244 261 286 318 337 340 331 323 325 326 324 323 322 314 294 276 292 334 8 11 15
219 221 224 228 229 226 222 220 216 214 218 225 232 241 250 251 253 255 258 249 236 242 250 267 310 339 345 334 323 324 328 328 328 330 327 284 218 203 79 28 20 23
219 222 224 228 229 226 221 217 214 214 217 222 225 231 240 248 249 247 246 238 231 234 238 250 297 330 342 339 328 330 334 337 344 358 28 109 141 132 114 74 51 46
222 224 225 227 227 224 219 216 214 215 215 217 219 225 237 247 245 240 235 223 221 228 233 241 278 308 328 340 337 340 344 348 7 35 74 104 114 114 108 103 88 76
224 223 222 224 224 220 218 216 216 215 213 212 216 222 232 242 240 236 231 218 217 227 233 239 263 281 299 330 342 348 350 351 36 64 85 96 101 105 100 96 95 92
222 219 218 221 222 219 218 216 215 214 212 210 214 218 224 233 234 229 225 220 221 228 231 236 251 258 260 277 317 349 350 328 114 96 97 94 95 101 100 98 99 97
219 216 216 220 222 220 218 216 213 213 213 211 212 214 218 226 229 222 214 213 220 227 230 235 245 245 244 246 248 311 336 265 178 129 113 104 97 99 101 102 104 104
218 216 216 219 221 219 217 214 212 213 212 211 211 212 214 220 222 215 208 207 214 222 227 233 242 243 239 235 229 227 248 229 200 168 135 116 103 98 97 97 98 102
219 218 218 218 220 220 216 213 211 212 213 213 212 211 213 216 216 210 207 209 214 220 227 231 236 240 238 230 223 214 210 217 212 196 166 131 114 105 100 96 92 93
220 219 219 220 220 219 215 212 212 213 214 214 213 212 212 213 213 210 209 212 216 219 227 232 232 236 237 229 220 212 207 211 213 206 193 168 139 118 106 97 91 90
223 222 221 221 219 217 215 213 214 215 215 215 214 214 215 215 214 214 214 215 218 220 225 229 229 233 236 227 217 210 206 207 209 208 203 195 171 140 117 104 95 93
226 224 222 221 220 218 215 214 214 215 215 215 215 215 217 217 217 218 220 219 218 220 225 228 227 230 233 226 216 210 207 207 208 208 208 205 189 163 137 118 109 107
227 225 223 222 220 218 218 217 216 216 216 215 214 213 215 217 217 219 223 224 220 220 223 225 226 228 230 224 215 211 209 208 208 210 210 209 200 182 163 146 138 139
229 226 225 223 221 222 222 220 217 215 214 214 215 215 216 217 217 219 224 226 224 223 223 224 225 228 229 223 216 213 212 211 211 212 212 211 207 196 184 175 173 176
232 228 226 224 226 228 225 219 217 216 215 217 220 221 221 220 219 219 223 226 227 225 223 223 225 228 229 224 217 214 215 215 214 214 214 214 212 207 200 194 193 195
236 231 229 227 230 231 225 219 220 220 218 221 224 223 222 222 220 221 223 226 228 226 222 222 223 225 228 226 220 216 216 217 217 217 218 218 217 216 212 207 204 205
Height
840 840 841 842 842 842 843 844 844 845 845 845 845 845 845 845 845 845 844 844 844 845 845 845 845 844 844 844 844 843 843 843 842 841 841 840 840 839 838 838 837 837
839 839 840 841 841 842 842 843 844 844 845 845 845 845 845 845 845 845 844 845 845 845 845 845 845 845 845 844 844 844 844 843 842 842 841 841 840 840 839 839 838 838
838 839 839 840 841 841 842 843 843 844 844 844 844 845 845 844 845 845 845 845 845 845 845 845 846 845 845 845 845 845 844 843 843 842 842 841 841 840 840 839 839 838
837 838 838 839 840 841 841 842 843 843 844 844 844 844 845 844 845 845 845 845 845 846 846 846 846 846 846 845 845 845 844 844 843 843 842 842 841 841 840 840 839 839
836 837 837 838 839 840 841 841 842 843 843 844 844 844 844 844 845 845 845 846 845 846 846 846 846 846 846 846 845 845 844 844 844 843 843 842 842 841 841 841 840 840
835 836 836 837 838 839 840 841 842 842 843 843 843 844 844 844 844 845 845 845 845 846 846 846 846 846 846 846 845 845 845 844 844 844 843 843 842 842 842 841 841 840
834 834 835 836 837 838 839 840 841 842 842 843 843 843 844 844 844 844 845 845 845 846 846 846 847 846 846 846 846 845 845 845 845 844 844 844 843 843 842 842 841 841
832 833 833 834 835 836 838 839 840 841 841 842 843 843 843 843 843 844 844 845 845 845 846 846 846 846 846 846 846 845 845 845 845 845 844 844 843 843 843 842 842 842
831 832 833 833 834 835 836 838 839 840 840 841 842 842 842 842 843 843 844 844 845 845 846 846 846 846 846 846 846 846 846 845 845 845 844 844 844 843 843 843 843 842
829 830 831 832 832 833 835 837 838 839 840 840 841 841 841 842 842 843 843 844 844 845 846 846 846 846 846 846 846 846 846 845 845 845 844 844 844 844 844 843 843 843
827 829 830 830 831 832 834 835 837 838 839 839 840 840 841 841 841 842 843 843 844 845 845 846 846 846 846 846 846 846 846 845 845 844 843 843 844 844 844 844 844 843
825 827 828 829 830 831 832 834 835 837 838 838 839 839 840 840 841 842 842 843 844 844 845 846 846 846 846 846 846 846 846 845 844 843 843 843 844 844 844 844 844 844
823 825 826 827 829 830 831 833 834 835 836 837 838 839 839 840 840 841 842 843 843 844 845 845 846 846 846 846 846 846 846 845 844 844 843 843 844 844 844 845 845 844
821 823 825 826 827 829 830 831 833 834 835 836 837 838 839 839 840 841 842 842 843 843 844 845 845 846 846 846 846 846 846 845 845 845 844 844 844 845 845 845 845 845
819 821 823 824 826 827 828 830 831 833 834 835 836 837 838 839 839 840 841 842 842 843 844 844 845 846 846 846 847 847 846 846 846 846 846 845 845 845 845 845 845 846
817 819 821 822 824 825 827 828 830 832 833 834 834 836 837 838 838 839 840 841 842 842 843 844 844 845 846 846 847 847 847 847 847 847 847 847 846 846 846 846 846 847
815 817 819 820 822 824 825 827 828 830 831 832 833 834 836 836 837 838 839 840 841 842 842 843 844 845 845 846 847 847 847 847 848 848 848 848 847 847 847 847 847 847
813 815 816 818 820 821 823 825 827 828 830 831 831 832 834 835 836 836 837 839 840 841 842 842 843 844 845 846 846 847 848 848 848 848 848 848 848 848 848 848 848 848
811 813 814 816 817 819 821 823 825 826 827 828 830 831 832 833 834 835 836 837 838 839 840 841 842 844 844 845 846 847 847 848 848 849 849 849 849 849 849 849 849 849
809 811 812 813 815 816 819 820 822 823 825 827 828 829 830 831 832 833 834 835 836 837 839 840 841 842 843 844 845 846 847 848 848 849 849 849 849 850 850 850 850 850
807 809 810 811 813 814 816 817 819 821 822 824 826 827 829 830 830 831 832 833 834 836 837 838 840 841 842 843 844 846 847 848 848 849 849 850 850 850 850 851 851 851
805 806 807 809 810 811 813 814 816 818 819 821 823 825 827 828 829 830 831 832 833 834 835 837 838 839 841 842 843 845 846 847 848 849 849 849 850 850 851 851 852 852
802 803 805 806 807 808 809 810 811 813 816 818 820 822 824 825 827 828 829 831 831 832 833 835 836 838 839 840 842 843 844 846 847 848 848 849 850 850 851 851 852 853
799 800 802 803 804 805 805 806 808 811 814 816 818 819 821 823 825 826 828 829 830 831 832 833 835 836 838 839 840 841 843 844 846 847 848 848 849 850 850 851 852 853
796 797 799 800 801 801 802 805 809 812 815 817 818 819 820 822 823 824 826 827 829 830 831 832 833 835 836 837 838 840 841 843 844 845 846 847 848 849 850 851 852 852
793 794 795 796 797 798 800 804 807 809 812 814 815 816 818 820 821 822 823 825 827 829 830 830 832 833 834 836 837 838 839 841 842 843 844 845 847 847 848 850 851 852